Printer-friendly version
Follow the MPC on Twitter Follow the MPC on Facebook The MPC blog
Minor Planet Center

MPEC 2009-S05 : 2009 SB

The following Minor Planet Electronic Circular may be linked-to from your own Web pages, but must not otherwise be redistributed electronically.

A form allowing access to any MPEC is at the bottom of this page.


Read MPEC 2009-S04 Read MPEC 2009-S06


M.P.E.C. 2009-S05                                Issued 2009 Sept. 17, 12:13 UT

     The Minor Planet Electronic Circulars contain information on unusual
         minor planets and routine data on comets.  They are published
   on behalf of Commission 20 of the International Astronomical Union by the
          Minor Planet Center, Smithsonian Astrophysical Observatory,
                          Cambridge, MA 02138, U.S.A.

             Prepared using the Tamkin Foundation Computer Network

                              MPC@CFA.HARVARD.EDU
          URL http://www.cfa.harvard.edu/iau/mpc.html  ISSN 1523-6714

                                    2009 SB

Observations:
     K09S00B* C2009 09 16.24433 23 10 38.31 +04 17 35.8          21.5 V ES005G96
     K09S00B  C2009 09 16.25057 23 10 37.34 +04 17 30.6          21.4 V ES005G96
     K09S00B  C2009 09 16.25685 23 10 36.44 +04 17 25.2          22.3 V ES005G96
     K09S00B  C2009 09 16.26327 23 10 35.47 +04 17 19.4          21.7 V ES005G96
     K09S00B  C2009 09 16.27495 23 10 33.72 +04 17 09.8          21.9 V ES005G96
     K09S00B  C2009 09 16.27656 23 10 33.53 +04 17 08.3          21.8 V ES005G96
     K09S00B  C2009 09 16.27821 23 10 33.27 +04 17 07.0          21.5 V ES005G96
     K09S00B  C2009 09 16.27995 23 10 33.04 +04 17 05.9          21.9 V ES005G96
     K09S00B  C2009 09 17.23499 23 08 14.36 +04 03 19.5          21.7 V ES005G96
     K09S00B  C2009 09 17.24147 23 08 13.36 +04 03 12.4          21.8 V ES005G96
     K09S00B  C2009 09 17.24787 23 08 12.42 +04 03 07.3          22.0 V ES005G96
     K09S00B  C2009 09 17.25532 23 08 11.26 +04 03 00.4          22.1 V ES005G96
     K09S00B  C2009 09 17.25616 23 08 11.18 +04 02 59.8          21.1 V ES005G96
     K09S00B  C2009 09 17.25697 23 08 11.01 +04 02 59.4          21.4 V ES005G96
     K09S00B  C2009 09 17.25779 23 08 10.91 +04 02 58.4          21.8 V ES005G96
     K09S00B  C2009 09 17.31317 23 08 02.58 +04 02 09.8                 ES005291
     K09S00B HC2009 09 17.31707 23 08 02.06 +04 02 05.6                 ES005291
     K09S00B  C2009 09 17.32080 23 08 01.40 +04 02 02.7                 ES005291

Observer details:
291 LPL/Spacewatch II.  Observer T. H. Bressi.  1.8-m f/2.7 reflector + CCD.
G96 Mt. Lemmon Survey.  Observer A. Boattini.  Measurers E. C. Beshore,
    A. Boattini, G. J. Garradd, A. R. Gibbs, A. D. Grauer, R. E. Hill,
    R. A. Kowalski, S. M. Larson, R. H. McNaught.  1.5-m reflector + CCD.

Orbital elements:
2009 SB                                             PHA, Earth MOID = 0.0310 AU
Epoch 2009 Sept. 6.0 TT = JDT 2455080.5                 MPC
M 329.33194              (2000.0)            P               Q
n   0.26354100     Peri.  272.66258     -0.63639236     -0.76898589
a   2.4093723      Node   217.08719     +0.74159989     -0.58835445
e   0.8424490      Incl.    5.76210     +0.21221303     -0.24999949
P   3.74           H   20.3           G   0.15
From 18 observations 2009 Sept. 16-17.

Ephemeris:
2009 SB                  a,e,i = 2.41, 0.84, 6                   q = 0.3796
Date    TT    R. A. (2000) Decl.     Delta      r     Elong.  Phase     V
2009 09 16    23 11.22   +04 21.1    0.870    1.869   170.8     4.9    21.8
2009 09 26    22 45.16   +01 37.0    0.778    1.750   158.6    12.1    21.7
2009 10 06    22 16.46   -01 43.8    0.718    1.626   141.8    22.3    21.7
2009 10 16    21 48.29   -05 18.1    0.684    1.495   124.5    33.3    21.7
2009 10 26    21 23.49   -08 41.8    0.668    1.357   107.8    44.2    21.8
2009 11 05    21 03.17   -11 43.4    0.658    1.211    92.2    54.9    21.8
2009 11 15    20 46.29   -14 27.4    0.644    1.057    77.5    66.0    21.8
2009 11 25    20 29.68   -17 10.2    0.617    0.894    62.8    79.3    21.8

Sonia Keys                   (C) Copyright 2009 MPC           M.P.E.C. 2009-S05

Read MPEC 2009-S04 Read MPEC 2009-S06


MPEC number:

Enter an MPEC number in one of the following forms:

  • 1997-B01 (the full form)
  • J97B01 (the packed version of the full form)
  • B01 (the abbreviated form)

Valid HTML 4.01!